Location: Raleigh
(35.7720°N, 78.6390°W)
Time: 18:15:46
(UTC-04:00)

Amateur Radio Satellites - All Passes

Search period start: 22 September 2014 17:45
Search period end: 23 September 2014 17:45
Location: Raleigh, 35.7720°N, 78.6390°W

Satellite Date Start Highest point End Downlink Frequencies (MHz)
Time Altitude Azimuth
OPAL 22 Sep 17:54:22 17:59:27 60° 103° (ESE) 18:04:26 ?
Uosat F 22 Sep 18:21:03 18:22:47 12° 268° (W) 18:24:31 435.120 FM
STRAND 1 22 Sep 18:43:37 18:44:48 11° 91° (E) 18:45:58 ?
Hamsat 22 Sep 18:53:33 18:57:40 41° 262° (W) 19:01:48 145.90 MHz
JAS-2 22 Sep 19:21:16 19:25:31 25° 264° (W) 19:29:43 435.800 - 435.900 CW/SSB, 435.910 FM
KITSAT 1 22 Sep 19:25:54 19:34:00 87° 297° (WNW) 19:42:08 435.175 FM
OPAL 22 Sep 19:34:52 19:37:46 15° 299° (WNW) 19:40:39 ?
SO-67 22 Sep 19:42:41 19:46:08 83° 259° (WSW) 19:49:36 435.3500 MHz FM
HO-68 22 Sep 20:16:02 20:21:44 27° 62° (ENE) 20:27:26 435.675 MHz FM
STRAND 1 22 Sep 20:19:18 20:24:26 73° 285° (WNW) 20:29:33 ?
Sapphire 22 Sep 20:40:07 20:44:46 28° 54° (NE) 20:49:23 437.095 MHz 1200 baud AX-25 AFSK
UKube-1 22 Sep 20:59:57 21:02:39 16° 67° (ENE) 21:05:20 145.840 MHz, 145.915 MHz
PCSat 22 Sep 21:06:22 21:11:39 50° 60° (ENE) 21:16:53 145.825 MHz
KITSAT 1 22 Sep 21:24:51 21:30:32 20° 318° (NW) 21:36:14 435.175 FM
SO-50 22 Sep 21:39:28 21:43:49 57° 116° (ESE) 21:48:17 436.795 FM
HO-68 22 Sep 22:02:03 22:08:58 54° 259° (WSW) 22:15:57 435.675 MHz FM
FUNcube-1 22 Sep 22:13:29 22:17:21 30° 71° (ENE) 22:21:19 145.950 - 145.970 MHz USB
Oscar 11 22 Sep 22:13:52 22:18:14 83° 77° (ENE) 22:22:37 145.825 FM, Beacon 2401.500 USB
Sapphire 22 Sep 22:23:16 22:28:12 36° 251° (WSW) 22:33:06 437.095 MHz 1200 baud AX-25 AFSK
UKube-1 22 Sep 22:34:29 22:38:30 38° 261° (W) 22:42:34 145.840 MHz, 145.915 MHz
PCSat 22 Sep 22:50:56 22:54:36 19° 255° (WSW) 22:58:16 145.825 MHz
ZACube-1 22 Sep 22:55:57 23:00:22 85° 258° (WSW) 23:04:55 437.345 MHz
UOSAT-12 22 Sep 22:58:47 23:02:45 29° 112° (ESE) 23:06:47 437.025 FM, 437.400 FM
SO-50 22 Sep 23:22:01 23:24:45 16° 314° (NW) 23:27:32 436.795 FM
PANSAT 22 Sep 23:24:12 23:25:28 11° 160° (SSE) 23:26:44 not established
FUNcube-1 22 Sep 23:50:25 23:53:44 21° 266° (W) 23:57:07 145.950 - 145.970 MHz USB
UOSAT-12 23 Sep 00:38:52 00:42:50 28° 308° (NW) 00:46:53 437.025 FM, 437.400 FM
ISS 23 Sep 00:47:26 00:50:10 24° 131° (SE) 00:52:55 145.800 FM
PANSAT 23 Sep 01:01:56 01:05:03 23° 171° (S) 01:08:09 not established
Saudisat 1A 23 Sep 01:33:31 01:37:45 43° 56° (NE) 01:41:56 436.775 MHz
AO-40 23 Sep 01:34:02 02:32:48 14° 240° (WSW) 03:59:13 Beacon 2401.320
Oscar 19 23 Sep 01:35:59 01:38:32 14° 92° (E) 01:41:04 437.125 CW, 437.150 USB
AO-Echo 23 Sep 02:00:30 02:01:35 11° 92° (E) 02:02:40 ?
Oscar 16 23 Sep 02:13:38 02:18:22 36° 98° (E) 02:23:03 437.025 USB, Beacon 2401.1428
ISS 23 Sep 02:23:50 02:26:47 29° 326° (NW) 02:29:45 145.800 FM
PANSAT 23 Sep 02:41:31 02:44:46 26° 184° (S) 02:48:00 not established
JAS-1B 23 Sep 02:50:41 02:55:59 39° 99° (E) 03:01:28 435.800 - 435.900 CW/SSB
ITAMSAT 1 23 Sep 03:04:24 03:09:24 45° 99° (E) 03:14:22 435.822 SSB
Uribyol 2 23 Sep 03:07:35 03:12:41 52° 100° (E) 03:17:46 436.500 FM
Oscar 19 23 Sep 03:13:09 03:18:13 59° 286° (WNW) 03:23:14 437.125 CW, 437.150 USB
Saudisat 1A 23 Sep 03:14:13 03:16:56 16° 251° (WSW) 03:19:39 436.775 MHz
Gurwin Techsat 1B 23 Sep 03:14:35 03:19:01 27° 96° (E) 03:23:26 435.225 FM
KITSAT 1 23 Sep 03:22:57 03:29:48 29° 48° (NE) 03:36:36 435.175 FM
RS-15 23 Sep 03:35:13 03:45:51 54° 111° (ESE) 03:56:16 29.354 - 29.394 USB, Beacon 29.352 USB
AO-Echo 23 Sep 03:35:49 03:40:43 70° 285° (WNW) 03:45:45 ?
AO-27 23 Sep 03:40:15 03:45:29 79° 285° (WNW) 03:50:41 436.795 MHz FM
TMSAT-1 23 Sep 03:48:46 03:53:47 42° 99° (E) 03:58:46 436.925 FM
Oscar 16 23 Sep 03:53:25 03:57:29 24° 293° (WNW) 04:01:31 437.025 USB, Beacon 2401.1428
PANSAT 23 Sep 04:22:05 04:24:24 15° 197° (SSW) 04:26:44 not established
JAS-1B 23 Sep 04:42:09 04:46:26 23° 295° (WNW) 04:50:48 435.800 - 435.900 CW/SSB
ITAMSAT 1 23 Sep 04:44:49 04:48:31 20° 294° (WNW) 04:52:12 435.822 SSB
Uribyol 2 23 Sep 04:48:21 04:51:42 18° 295° (WNW) 04:55:03 436.500 FM
Uosat F 23 Sep 04:49:54 04:54:01 25° 96° (E) 04:58:07 435.120 FM
Gurwin Techsat 1B 23 Sep 04:54:15 04:58:57 33° 290° (WNW) 05:03:39 435.225 FM
OPAL 23 Sep 05:06:14 05:11:24 78° 73° (ENE) 05:16:38 ?
KITSAT 1 23 Sep 05:17:45 05:25:41 63° 247° (WSW) 05:33:34 435.175 FM
AO-7 23 Sep 05:18:05 05:26:13 57° 103° (ESE) 05:34:18 29.400 - 29.500 MHz
TMSAT-1 23 Sep 05:29:26 05:33:23 22° 294° (WNW) 05:37:20 436.925 FM
RS-15 23 Sep 05:48:09 05:58:22 42° 312° (NW) 06:08:34 29.354 - 29.394 USB, Beacon 29.352 USB
STRAND 1 23 Sep 05:56:38 05:58:52 13° 63° (ENE) 06:01:07 ?
SO-50 23 Sep 06:14:00 06:18:04 26° 51° (NE) 06:22:09 436.795 FM
Uosat F 23 Sep 06:28:20 06:32:46 32° 291° (WNW) 06:37:11 435.120 FM
JAS-2 23 Sep 06:29:59 06:36:02 44° 100° (E) 06:42:47 435.800 - 435.900 CW/SSB, 435.910 FM
Hamsat 23 Sep 06:42:09 06:46:08 40° 98° (E) 06:50:05 145.90 MHz
OPAL 23 Sep 06:49:51 06:50:46 10° 268° (W) 06:51:41 ?
AO-7 23 Sep 07:11:39 07:18:30 30° 300° (WNW) 07:25:21 29.400 - 29.500 MHz
MaSat-1 23 Sep 07:17:33 07:22:00 34° 107° (ESE) 07:26:27 437.345 MHz
ISS 23 Sep 07:18:52 07:20:39 14° 26° (NNE) 07:22:26 145.800 FM
UOSAT-12 23 Sep 07:31:51 07:34:28 15° 45° (NE) 07:37:04 437.025 FM, 437.400 FM
STRAND 1 23 Sep 07:32:24 07:37:26 68° 258° (WSW) 07:42:31 ?
SO-50 23 Sep 07:54:17 07:58:39 34° 247° (WSW) 08:03:02 436.795 FM
RS-15 23 Sep 08:09:35 08:14:57 14° 343° (NNW) 08:20:21 29.354 - 29.394 USB, Beacon 29.352 USB
JAS-2 23 Sep 08:15:34 08:20:53 30° 291° (WNW) 08:26:44 435.800 - 435.900 CW/SSB, 435.910 FM
Hamsat 23 Sep 08:19:26 08:21:43 14° 293° (WNW) 08:23:59 145.90 MHz
SO-67 23 Sep 08:42:02 08:45:20 43° 285° (WNW) 08:48:36 435.3500 MHz FM
ISS 23 Sep 08:54:25 08:57:45 85° 221° (SW) 09:01:03 145.800 FM
MaSat-1 23 Sep 08:54:33 08:58:43 26° 301° (WNW) 09:02:49 437.345 MHz
UOSAT-12 23 Sep 09:10:24 09:15:06 69° 243° (WSW) 09:19:41 437.025 FM, 437.400 FM
HO-68 23 Sep 09:33:01 09:39:28 35° 98° (E) 09:45:53 435.675 MHz FM
Oscar 11 23 Sep 10:05:28 10:08:30 18° 94° (E) 10:11:30 145.825 FM, Beacon 2401.500 USB
UKube-1 23 Sep 10:25:18 10:29:27 42° 99° (E) 10:33:35 145.840 MHz, 145.915 MHz
RS-15 23 Sep 10:27:53 10:34:12 16° 22° (NNE) 10:40:35 29.354 - 29.394 USB, Beacon 29.352 USB
Oscar 10/S400 23 Sep 10:46:56 01:24:01 55° 214° (SSW) 11:03:23 145.825 - 145.975 CW/USB, Beacon 145.810 USB
ZACube-1 23 Sep 10:48:49 10:52:34 24° 95° (E) 10:56:14 437.345 MHz
Sapphire 23 Sep 11:18:42 11:23:47 44° 111° (ESE) 11:28:54 437.095 MHz 1200 baud AX-25 AFSK
HO-68 23 Sep 11:20:34 11:27:07 40° 294° (WNW) 11:33:41 435.675 MHz FM
Oscar 11 23 Sep 11:40:51 11:44:42 32° 288° (WNW) 11:48:32 145.825 FM, Beacon 2401.500 USB
FUNcube-1 23 Sep 11:41:08 11:45:45 84° 283° (WNW) 11:50:16 145.950 - 145.970 MHz USB
PCSat 23 Sep 11:44:54 11:50:17 85° 115° (ESE) 11:55:44 145.825 MHz
UKube-1 23 Sep 12:02:46 12:05:16 15° 294° (WNW) 12:07:45 145.840 MHz, 145.915 MHz
ZACube-1 23 Sep 12:24:59 12:28:53 28° 290° (WNW) 12:32:43 437.345 MHz
RS-15 23 Sep 12:39:28 12:50:12 50° 52° (NE) 13:01:18 29.354 - 29.394 USB, Beacon 29.352 USB
Oscar 19 23 Sep 12:50:09 12:53:18 17° 64° (ENE) 12:56:28 437.125 CW, 437.150 USB
Sapphire 23 Sep 13:03:04 13:07:22 24° 307° (NW) 13:11:42 437.095 MHz 1200 baud AX-25 AFSK
AO-Echo 23 Sep 13:12:12 13:12:46 10° 63° (ENE) 13:13:20 ?
AO-27 23 Sep 13:19:32 13:21:51 13° 63° (ENE) 13:24:10 436.795 MHz FM
Oscar 16 23 Sep 13:27:44 13:32:32 39° 71° (ENE) 13:37:21 437.025 USB, Beacon 2401.1428
PCSat 23 Sep 13:31:40 13:34:24 14° 313° (NW) 13:37:08 145.825 MHz
JAS-1B 23 Sep 13:31:48 13:39:00 34° 68° (ENE) 13:45:12 435.800 - 435.900 CW/SSB
ITAMSAT 1 23 Sep 14:19:37 14:24:35 51° 72° (ENE) 14:29:35 435.822 SSB
Uribyol 2 23 Sep 14:22:37 14:27:40 59° 73° (ENE) 14:32:46 436.500 FM
Oscar 19 23 Sep 14:27:04 14:32:09 55° 260° (W) 14:37:15 437.125 CW, 437.150 USB
AO-7 23 Sep 14:28:41 14:30:42 11° 49° (NE) 14:32:44 29.400 - 29.500 MHz
Gurwin Techsat 1B 23 Sep 14:32:55 14:37:33 32° 69° (ENE) 14:42:13 435.225 FM
AO-Echo 23 Sep 14:46:11 14:50:54 73° 258° (WSW) 14:55:36 ?
RS-15 23 Sep 14:52:03 15:02:25 45° 251° (WSW) 15:13:13 29.354 - 29.394 USB, Beacon 29.352 USB
AO-27 23 Sep 14:55:35 15:00:43 69° 258° (WSW) 15:05:54 436.795 MHz FM
TMSAT-1 23 Sep 15:06:41 15:11:44 49° 72° (ENE) 15:16:50 436.925 FM
Oscar 16 23 Sep 15:08:05 15:11:58 21° 265° (W) 15:15:53 437.025 USB, Beacon 2401.1428
JAS-1B 23 Sep 15:21:15 15:29:23 45° 260° (W) 15:36:18 435.800 - 435.900 CW/SSB
Saudisat 1A 23 Sep 15:38:04 15:41:25 22° 111° (ESE) 15:44:48 436.775 MHz
Uosat F 23 Sep 16:00:37 16:04:43 26° 68° (ENE) 16:08:50 435.120 FM
ITAMSAT 1 23 Sep 16:01:11 16:04:19 16° 267° (W) 16:07:29 435.822 SSB
Uribyol 2 23 Sep 16:04:52 16:07:29 14° 268° (W) 16:10:07 436.500 FM
Gurwin Techsat 1B 23 Sep 16:13:01 16:17:28 27° 264° (W) 16:21:57 435.225 FM
AO-7 23 Sep 16:13:41 16:21:46 60° 68° (ENE) 16:29:52 29.400 - 29.500 MHz
TMSAT-1 23 Sep 16:48:27 16:51:53 17° 267° (W) 16:55:20 436.925 FM
MaSat-1 23 Sep 17:13:25 17:16:31 27° 59° (ENE) 17:19:13 437.345 MHz
Saudisat 1A 23 Sep 17:16:50 17:20:47 32° 306° (NW) 17:24:46 436.775 MHz
OPAL 23 Sep 17:19:52 17:24:05 26° 98° (E) 17:28:14 ?
Hamsat 23 Sep 17:33:09 17:36:28 22° 70° (ENE) 17:39:47 145.90 MHz
